Weather History for Spirit of St Louis, MO

Change the Weather History Date:

Thursday, August 1, 2013

  Actual Average Record
Temperature  
Mean Temperature 74 °F -  
Max Temperature 87 °F 86 °F 102 °F (2006)
Min Temperature 62 °F 64 °F 56 °F (1997)
Cooling Degree Days 10    
Growing Degree Days 24 (Base 50)    
Moisture  
Dew Point 63 °F    
Average Humidity 76    
Maximum Humidity 97    
Minimum Humidity 36    
Precipitation  
Precipitation 0.00 in - - ()
Sea Level Pressure  
Sea Level Pressure 30.03 in    
Wind  
Wind Speed 1 mph (WNW)    
Max Wind Speed 6 mph    
Max Gust Speed -    
Visibility 9 miles    
Events Fog    
Averages and records for this station are not official NWS values.
T = Trace of Precipitation, MM = Missing Value Source: NWS Daily Summary

Daily Weather History Graph

Daily Weather History Graph

Search for Another Location

Airport:

Trip Planner

Search our weather history database for the weather conditions in past years. The results will help you decide how hot, cold, wet, or windy it might be!

Date:

Astronomy

Aug. 01, 2013 Rise Set
Actual Time 6:04 AM CDT 8:12 PM CDT
Civil Twilight 5:34 AM CDT 8:42 PM CDT
Nautical Twilight 4:58 AM CDT 9:18 PM CDT
Astronomical Twilight 4:19 AM CDT 9:57 PM CDT
Moon 1:41 AM CDT (8/1) 4:21 PM CDT (8/1)
Length of Visible Light 15h 07m
Length of Day
14h 08m
Waning Crescent, 23% of the Moon is Illuminated
Aug 1
Waning Crescent
Aug 6
New
Aug 14
First Quarter
Aug 20
Full
Aug 28
Last Quarter

Hourly Weather History & Observations

Time (CDT) Temp. Heat Index Dew Point Humidity Pressure Visibility Wind Dir Wind Speed Gust Speed Precip Events Conditions
12:54 AM 64.9 °F - 63.0 °F 93% 30.03 in 8.0 mi Calm Calm - N/A   Clear
1:54 AM 64.0 °F - 63.0 °F 96% 30.02 in 6.0 mi Calm Calm - N/A   Clear
2:54 AM 64.0 °F - 63.0 °F 96% 30.03 in 10.0 mi Calm Calm - N/A   Clear
3:54 AM 63.0 °F - 62.1 °F 97% 30.02 in 10.0 mi Calm Calm - N/A   Clear
4:54 AM 63.0 °F - 62.1 °F 97% 30.03 in 9.0 mi WNW 3.5 mph - N/A   Clear
5:31 AM 62.6 °F - 60.8 °F 94% 30.05 in 1.8 mi Calm Calm - N/A   Clear
5:43 AM 62.6 °F - 60.8 °F 94% 30.05 in 0.5 mi Calm Calm - N/A Fog Fog
5:50 AM 62.6 °F - 60.8 °F 94% 30.06 in 6.0 mi Calm Calm - N/A   Clear
5:54 AM 63.0 °F - 62.1 °F 97% 30.04 in 6.0 mi Calm Calm - N/A   Clear
6:54 AM 64.9 °F - 63.0 °F 93% 30.05 in 9.0 mi Calm Calm - N/A   Clear
7:54 AM 69.1 °F - 64.9 °F 87% 30.07 in 10.0 mi West 3.5 mph - N/A   Clear
8:54 AM 73.0 °F - 66.0 °F 79% 30.07 in 10.0 mi WNW 3.5 mph - N/A   Clear
9:54 AM 77.0 °F - 66.0 °F 69% 30.07 in 10.0 mi WNW 3.5 mph - N/A   Clear
10:54 AM 80.1 °F 82.1 °F 66.0 °F 62% 30.07 in 10.0 mi West 4.6 mph - N/A   Mostly Cloudy
11:54 AM 82.0 °F 84.1 °F 66.0 °F 58% 30.07 in 10.0 mi NW 5.8 mph - N/A   Mostly Cloudy
12:54 PM 84.0 °F 86.3 °F 66.0 °F 55% 30.05 in 10.0 mi Variable 3.5 mph - N/A   Mostly Cloudy
1:54 PM 82.9 °F 85.0 °F 66.0 °F 56% 30.04 in 10.0 mi Variable 4.6 mph - N/A   Mostly Cloudy
2:54 PM 84.9 °F 85.4 °F 62.1 °F 46% 30.03 in 10.0 mi Calm Calm - N/A   Partly Cloudy
3:54 PM 87.1 °F 86.7 °F 60.1 °F 40% 30.01 in 10.0 mi NNW 5.8 mph - N/A   Mostly Cloudy
4:54 PM 87.1 °F 85.9 °F 57.0 °F 36% 29.99 in 10.0 mi Calm Calm - N/A   Clear
5:54 PM 84.9 °F 84.4 °F 59.0 °F 41% 29.98 in 10.0 mi Calm Calm - N/A   Scattered Clouds
6:54 PM 84.0 °F 85.4 °F 64.0 °F 51% 29.98 in 10.0 mi Calm Calm - N/A   Clear
7:54 PM 77.0 °F - 64.9 °F 66% 29.97 in 10.0 mi Calm Calm - N/A   Scattered Clouds
8:54 PM 72.0 °F - 66.9 °F 84% 29.98 in 10.0 mi Calm Calm - N/A   Clear
9:54 PM 69.1 °F - 64.9 °F 87% 29.98 in 10.0 mi Calm Calm - N/A   Clear
10:54 PM 68.0 °F - 64.0 °F 87% 29.97 in 10.0 mi Calm Calm - N/A   Clear
11:54 PM 66.9 °F - 63.0 °F 87% 29.98 in 10.0 mi Calm Calm - N/A   Clear